This is the latest recevied weather packets stored in our database for station/object EA7OC-10. If no packets are shown the sender has not sent any weather packets the latest 10 day(s).
| Time | Temp. | Humidity | Pressure | Rain* | Wind** | Luminosity | Snow |
|---|---|---|---|---|---|---|---|
| 1778038204 | 12.22° C | 27% | 1013 hPa | - | - | - | - |
| 1778037304 | 12.22° C | 27% | 1013 hPa | - | - | - | - |
| 1778036404 | 12.22° C | 27% | 1013 hPa | - | - | - | - |
| 1778035503 | 12.78° C | 26% | 1012.9 hPa | - | - | - | - |
| 1778034603 | 12.78° C | 27% | 1012.8 hPa | - | - | - | - |
| 1778033703 | 13.33° C | 26% | 1012.8 hPa | - | - | - | - |
| 1778032799 | 13.33° C | 27% | 1013 hPa | - | - | - | - |
| 1778031898 | 13.89° C | 26% | 1013 hPa | - | - | - | - |
| 1778030994 | 14.44° C | 27% | 1013.1 hPa | - | - | - | - |
| 1778030094 | 15° C | 27% | 1013.2 hPa | - | - | - | - |
| 1778029194 | 15° C | 27% | 1013.2 hPa | - | - | - | - |
| 1778028293 | 15° C | 27% | 1013.4 hPa | - | - | - | - |
| 1778027393 | 15° C | 26% | 1013.6 hPa | - | - | - | - |
| 1778026493 | 15.56° C | 26% | 1013.8 hPa | - | - | - | - |
| 1778025591 | 16.11° C | 26% | 1013.9 hPa | - | - | - | - |
| 1778024691 | 16.67° C | 26% | 1013.8 hPa | - | - | - | - |
| 1778023791 | 17.22° C | 26% | 1013.7 hPa | - | - | - | - |
| 1778022891 | 18.33° C | 26% | 1013.7 hPa | - | - | - | - |
| 1778021991 | 19.44° C | 26% | 1013.7 hPa | - | - | - | - |
| 1778021090 | 18.89° C | 27% | 1013.5 hPa | - | - | - | - |
| 1778020190 | 18.33° C | 26% | 1013.5 hPa | - | - | - | - |
| 1778019287 | 20° C | 26% | 1013.7 hPa | - | - | - | - |
| 1778018383 | 21.11° C | 27% | 1013.6 hPa | - | - | - | - |
| 1778017482 | 21.11° C | 26% | 1013.3 hPa | - | - | - | - |
| 1778016582 | 21.11° C | 27% | 1013.3 hPa | - | - | - | - |
* Rain since midnight (hover to see other rain measurements)
** Current wind speed in m/s (hover to see current wind gust speed)